Year,Month,Day,Hour,Minute,Value (Times are PST for temperature in C)
2015,06,28,00,00,19.50
2015,06,28,00,01,19.40
2015,06,28,00,02,19.40
2015,06,28,00,03,19.40
2015,06,28,00,04,19.40
2015,06,28,00,05,19.40
2015,06,28,00,06,19.30
2015,06,28,00,07,19.30
2015,06,28,00,08,19.30
2015,06,28,00,09,19.30
2015,06,28,00,10,19.30
2015,06,28,00,11,19.20
2015,06,28,00,12,19.20
2015,06,28,00,13,19.20
2015,06,28,00,14,19.20
2015,06,28,00,15,19.20
2015,06,28,00,16,19.20
2015,06,28,00,17,19.20
2015,06,28,00,18,19.10
2015,06,28,00,19,19.10
2015,06,28,00,20,19.10
2015,06,28,00,21,19.00
2015,06,28,00,22,19.00
2015,06,28,00,23,19.00
2015,06,28,00,24,19.00
2015,06,28,00,25,18.90
2015,06,28,00,26,18.90
2015,06,28,00,27,18.90
2015,06,28,00,28,18.90
2015,06,28,00,29,18.90
2015,06,28,00,30,18.90
2015,06,28,00,31,18.90
2015,06,28,00,32,18.90
2015,06,28,00,33,18.90
2015,06,28,00,34,18.90
2015,06,28,00,35,18.80
2015,06,28,00,36,18.80
2015,06,28,00,37,18.80
2015,06,28,00,38,18.80
2015,06,28,00,39,18.70
2015,06,28,00,40,18.70
2015,06,28,00,41,18.70
2015,06,28,00,42,18.70
2015,06,28,00,43,18.60
2015,06,28,00,44,18.60
2015,06,28,00,45,18.60
2015,06,28,00,46,18.60
2015,06,28,00,47,18.60
2015,06,28,00,48,18.60
2015,06,28,00,49,18.50
2015,06,28,00,50,18.50
2015,06,28,00,51,18.50
2015,06,28,00,52,18.50
2015,06,28,00,53,18.40
2015,06,28,00,54,18.40
2015,06,28,00,55,18.40
2015,06,28,00,56,18.40
2015,06,28,00,57,18.40
2015,06,28,00,58,18.30
2015,06,28,00,59,18.30
2015,06,28,01,00,18.30
2015,06,28,01,01,18.30
2015,06,28,01,02,18.30
2015,06,28,01,03,18.30
2015,06,28,01,04,18.20
2015,06,28,01,05,18.20
2015,06,28,01,06,18.20
2015,06,28,01,07,18.20
2015,06,28,01,08,18.20
2015,06,28,01,09,18.20
2015,06,28,01,10,18.20
2015,06,28,01,11,18.10
2015,06,28,01,12,18.10
2015,06,28,01,13,18.10
2015,06,28,01,14,18.10
2015,06,28,01,15,18.10
2015,06,28,01,16,18.10
2015,06,28,01,17,18.00
2015,06,28,01,18,18.00
2015,06,28,01,19,18.00
2015,06,28,01,20,18.00
2015,06,28,01,21,18.00
2015,06,28,01,22,18.00
2015,06,28,01,23,17.90
2015,06,28,01,24,17.90
2015,06,28,01,25,17.90
2015,06,28,01,26,17.90
2015,06,28,01,27,17.90
2015,06,28,01,28,17.90
2015,06,28,01,29,17.80
2015,06,28,01,30,17.80
2015,06,28,01,31,17.80
2015,06,28,01,32,17.80
2015,06,28,01,33,17.80
2015,06,28,01,34,17.80
2015,06,28,01,35,17.80
2015,06,28,01,36,17.70
2015,06,28,01,37,17.70
2015,06,28,01,38,17.70
2015,06,28,01,39,17.70
2015,06,28,01,40,17.70
2015,06,28,01,41,17.70
2015,06,28,01,42,17.70
2015,06,28,01,43,17.70
2015,06,28,01,44,17.60
2015,06,28,01,45,17.60
2015,06,28,01,46,17.60
2015,06,28,01,47,17.60
2015,06,28,01,48,17.60
2015,06,28,01,49,17.60
2015,06,28,01,50,17.60
2015,06,28,01,51,17.50
2015,06,28,01,52,17.50
2015,06,28,01,53,17.50
2015,06,28,01,54,17.50
2015,06,28,01,55,17.50
2015,06,28,01,56,17.40
2015,06,28,01,57,17.40
2015,06,28,01,58,17.40
2015,06,28,01,59,17.40
2015,06,28,02,00,17.40
2015,06,28,02,01,17.30
2015,06,28,02,02,17.30
2015,06,28,02,03,17.30
2015,06,28,02,04,17.30
2015,06,28,02,05,17.30
2015,06,28,02,06,17.30
2015,06,28,02,07,17.30
2015,06,28,02,08,17.30
2015,06,28,02,09,17.30
2015,06,28,02,10,17.30
2015,06,28,02,11,17.30
2015,06,28,02,12,17.30
2015,06,28,02,13,17.20
2015,06,28,02,14,17.20
2015,06,28,02,15,17.20
2015,06,28,02,16,17.20
2015,06,28,02,17,17.20
2015,06,28,02,18,17.20
2015,06,28,02,19,17.20
2015,06,28,02,20,17.20
2015,06,28,02,21,17.20
2015,06,28,02,22,17.20
2015,06,28,02,23,17.20
2015,06,28,02,24,17.10
2015,06,28,02,25,17.10
2015,06,28,02,26,17.10
2015,06,28,02,27,17.10
2015,06,28,02,28,17.00
2015,06,28,02,29,17.00
2015,06,28,02,30,17.00
2015,06,28,02,31,17.00
2015,06,28,02,32,17.00
2015,06,28,02,33,16.90
2015,06,28,02,34,16.90
2015,06,28,02,35,16.90
2015,06,28,02,36,16.90
2015,06,28,02,37,16.90
2015,06,28,02,38,16.90
2015,06,28,02,39,16.90
2015,06,28,02,40,16.90
2015,06,28,02,41,16.90
2015,06,28,02,42,16.90
2015,06,28,02,43,16.90
2015,06,28,02,44,16.80
2015,06,28,02,45,16.80
2015,06,28,02,46,16.80
2015,06,28,02,47,16.80
2015,06,28,02,48,16.80
2015,06,28,02,49,16.80
2015,06,28,02,50,16.80
2015,06,28,02,51,16.80
2015,06,28,02,52,16.70
2015,06,28,02,53,16.70
2015,06,28,02,54,16.70
2015,06,28,02,55,16.70
2015,06,28,02,56,16.70
2015,06,28,02,57,16.70
2015,06,28,02,58,16.70
2015,06,28,02,59,16.70
2015,06,28,03,00,16.70
2015,06,28,03,01,16.70
2015,06,28,03,02,16.70
2015,06,28,03,03,16.70
2015,06,28,03,04,16.70
2015,06,28,03,05,16.70
2015,06,28,03,06,16.70
2015,06,28,03,07,16.70
2015,06,28,03,08,16.60
2015,06,28,03,09,16.60
2015,06,28,03,10,16.70
2015,06,28,03,11,16.60
2015,06,28,03,12,16.60
2015,06,28,03,13,16.60
2015,06,28,03,14,16.60
2015,06,28,03,15,16.60
2015,06,28,03,16,16.60
2015,06,28,03,17,16.60
2015,06,28,03,18,16.60
2015,06,28,03,19,16.60
2015,06,28,03,20,16.60
2015,06,28,03,21,16.60
2015,06,28,03,22,16.50
2015,06,28,03,23,16.50
2015,06,28,03,24,16.50
2015,06,28,03,25,16.50
2015,06,28,03,26,16.50
2015,06,28,03,27,16.50
2015,06,28,03,28,16.40
2015,06,28,03,29,16.40
2015,06,28,03,30,16.40
2015,06,28,03,31,16.40
2015,06,28,03,32,16.40
2015,06,28,03,33,16.40
2015,06,28,03,34,16.30
2015,06,28,03,35,16.30
2015,06,28,03,36,16.30
2015,06,28,03,37,16.30
2015,06,28,03,38,16.30
2015,06,28,03,39,16.20
2015,06,28,03,40,16.20
2015,06,28,03,41,16.20
2015,06,28,03,42,16.20
2015,06,28,03,43,16.20
2015,06,28,03,44,16.20
2015,06,28,03,45,16.20
2015,06,28,03,46,16.20
2015,06,28,03,47,16.20
2015,06,28,03,48,16.20
2015,06,28,03,49,16.20
2015,06,28,03,50,16.10
2015,06,28,03,51,16.10
2015,06,28,03,52,16.10
2015,06,28,03,53,16.10
2015,06,28,03,54,16.10
2015,06,28,03,55,16.10
2015,06,28,03,56,16.10
2015,06,28,03,57,16.10
2015,06,28,03,58,16.10
2015,06,28,03,59,16.10
2015,06,28,04,00,16.10
2015,06,28,04,01,16.00
2015,06,28,04,02,16.00
2015,06,28,04,03,16.00
2015,06,28,04,04,16.00
2015,06,28,04,05,15.90
2015,06,28,04,06,15.90
2015,06,28,04,07,15.90
2015,06,28,04,08,15.90
2015,06,28,04,09,15.90
2015,06,28,04,10,15.90
2015,06,28,04,11,15.90
2015,06,28,04,12,15.90
2015,06,28,04,13,15.90
2015,06,28,04,14,15.90
2015,06,28,04,15,15.90
2015,06,28,04,16,15.90
2015,06,28,04,17,15.90
2015,06,28,04,18,15.90
2015,06,28,04,19,15.90
2015,06,28,04,20,15.90
2015,06,28,04,21,15.90
2015,06,28,04,22,15.90
2015,06,28,04,23,15.90
2015,06,28,04,24,15.80
2015,06,28,04,25,15.80
2015,06,28,04,26,15.80
2015,06,28,04,27,15.80
2015,06,28,04,28,15.80
2015,06,28,04,29,15.80
2015,06,28,04,30,15.80
2015,06,28,04,31,15.80
2015,06,28,04,32,15.80
2015,06,28,04,33,15.80
2015,06,28,04,34,15.80
2015,06,28,04,35,15.80
2015,06,28,04,36,15.80
2015,06,28,04,37,15.70
2015,06,28,04,38,15.70
2015,06,28,04,39,15.70
2015,06,28,04,40,15.70
2015,06,28,04,41,15.70
2015,06,28,04,42,15.70
2015,06,28,04,43,15.70
2015,06,28,04,44,15.70
2015,06,28,04,45,15.70
2015,06,28,04,46,15.70
2015,06,28,04,47,15.70
2015,06,28,04,48,15.70
2015,06,28,04,49,15.70
2015,06,28,04,50,15.70
2015,06,28,04,51,15.70
2015,06,28,04,52,15.70
2015,06,28,04,53,15.70
2015,06,28,04,54,15.70
2015,06,28,04,55,15.70
2015,06,28,04,56,15.60
2015,06,28,04,57,15.60
2015,06,28,04,58,15.60
2015,06,28,04,59,15.60
2015,06,28,05,00,15.60
2015,06,28,05,01,15.60
2015,06,28,05,02,15.60
2015,06,28,05,03,15.60
2015,06,28,05,04,15.50
2015,06,28,05,05,15.50
2015,06,28,05,06,15.50
2015,06,28,05,07,15.50
2015,06,28,05,08,15.40
2015,06,28,05,09,15.40
2015,06,28,05,10,15.40
2015,06,28,05,11,15.40
2015,06,28,05,12,15.40
2015,06,28,05,13,15.40
2015,06,28,05,14,15.40
2015,06,28,05,15,15.40
2015,06,28,05,16,15.40
2015,06,28,05,17,15.40
2015,06,28,05,18,15.40
2015,06,28,05,19,15.40
2015,06,28,05,20,15.40
2015,06,28,05,21,15.40
2015,06,28,05,22,15.40
2015,06,28,05,23,15.40
2015,06,28,05,24,15.40
2015,06,28,05,25,15.40
2015,06,28,05,26,15.40
2015,06,28,05,27,15.40
2015,06,28,05,28,15.40
2015,06,28,05,29,15.40
2015,06,28,05,30,15.40
2015,06,28,05,31,15.40
2015,06,28,05,32,15.40
2015,06,28,05,33,15.40
2015,06,28,05,34,15.40
2015,06,28,05,35,15.40
2015,06,28,05,36,15.40
2015,06,28,05,37,15.40
2015,06,28,05,38,15.40
2015,06,28,05,39,15.40
2015,06,28,05,40,15.40
2015,06,28,05,41,15.40
2015,06,28,05,42,15.40
2015,06,28,05,43,15.40
2015,06,28,05,44,15.40
2015,06,28,05,45,15.40
2015,06,28,05,46,15.40
2015,06,28,05,47,15.40
2015,06,28,05,48,15.40
2015,06,28,05,49,15.40
2015,06,28,05,50,15.40
2015,06,28,05,51,15.40
2015,06,28,05,52,15.40
2015,06,28,05,53,15.40
2015,06,28,05,54,15.40
2015,06,28,05,55,15.40
2015,06,28,05,56,15.40
2015,06,28,05,57,15.40
2015,06,28,05,58,15.40
2015,06,28,05,59,15.40
2015,06,28,06,00,15.40
2015,06,28,06,01,15.50
2015,06,28,06,02,15.50
2015,06,28,06,03,15.50
2015,06,28,06,04,15.60
2015,06,28,06,05,15.60
2015,06,28,06,06,15.60
2015,06,28,06,07,15.60
2015,06,28,06,08,15.70
2015,06,28,06,09,15.70
2015,06,28,06,10,15.70
2015,06,28,06,11,15.80
2015,06,28,06,12,15.80
2015,06,28,06,13,15.80
2015,06,28,06,14,15.80
2015,06,28,06,15,15.90
2015,06,28,06,16,15.90
2015,06,28,06,17,15.90
2015,06,28,06,18,16.00
2015,06,28,06,19,16.00
2015,06,28,06,20,16.00
2015,06,28,06,21,16.10
2015,06,28,06,22,16.10
2015,06,28,06,23,16.20
2015,06,28,06,24,16.20
2015,06,28,06,25,16.30
2015,06,28,06,26,16.30
2015,06,28,06,27,16.30
2015,06,28,06,28,16.40
2015,06,28,06,29,16.40
2015,06,28,06,30,16.40
2015,06,28,06,31,16.50
2015,06,28,06,32,16.50
2015,06,28,06,33,16.50
2015,06,28,06,34,16.60
2015,06,28,06,35,16.60
2015,06,28,06,36,16.60
2015,06,28,06,37,16.70
2015,06,28,06,38,16.70
2015,06,28,06,39,16.70
2015,06,28,06,40,16.80
2015,06,28,06,41,16.80
2015,06,28,06,42,16.80
2015,06,28,06,43,16.80
2015,06,28,06,44,16.80
2015,06,28,06,45,16.80
2015,06,28,06,46,16.90
2015,06,28,06,47,16.90
2015,06,28,06,48,16.90
2015,06,28,06,49,16.90
2015,06,28,06,50,16.90
2015,06,28,06,51,17.00
2015,06,28,06,52,17.00
2015,06,28,06,53,17.00
2015,06,28,06,54,17.10
2015,06,28,06,55,17.10
2015,06,28,06,56,17.10
2015,06,28,06,57,17.20
2015,06,28,06,58,17.20
2015,06,28,06,59,17.20
2015,06,28,07,00,17.20
2015,06,28,07,01,17.30
2015,06,28,07,02,17.30
2015,06,28,07,03,17.30
2015,06,28,07,04,17.40
2015,06,28,07,05,17.40
2015,06,28,07,06,17.40
2015,06,28,07,07,17.50
2015,06,28,07,08,17.50
2015,06,28,07,09,17.60
2015,06,28,07,10,17.60
2015,06,28,07,11,17.60
2015,06,28,07,12,17.70
2015,06,28,07,13,17.70
2015,06,28,07,14,17.70
2015,06,28,07,15,17.80
2015,06,28,07,16,17.80
2015,06,28,07,17,17.90
2015,06,28,07,18,17.90
2015,06,28,07,19,18.00
2015,06,28,07,20,18.10
2015,06,28,07,21,18.10
2015,06,28,07,22,18.20
2015,06,28,07,23,18.20
2015,06,28,07,24,18.30
2015,06,28,07,25,18.30
2015,06,28,07,26,18.30
2015,06,28,07,27,18.40
2015,06,28,07,28,18.40
2015,06,28,07,29,18.50
2015,06,28,07,30,18.60
2015,06,28,07,31,18.60
2015,06,28,07,32,18.70
2015,06,28,07,33,18.80
2015,06,28,07,34,18.90
2015,06,28,07,35,19.00
2015,06,28,07,36,19.10
2015,06,28,07,37,19.20
2015,06,28,07,38,19.30
2015,06,28,07,39,19.40
2015,06,28,07,40,19.50
2015,06,28,07,41,19.60
2015,06,28,07,42,19.60
2015,06,28,07,43,19.70
2015,06,28,07,44,19.80
2015,06,28,07,45,19.90
2015,06,28,07,46,19.90
2015,06,28,07,47,20.00
2015,06,28,07,48,20.00
2015,06,28,07,49,20.10
2015,06,28,07,50,20.20
2015,06,28,07,51,20.20
2015,06,28,07,52,20.30
2015,06,28,07,53,20.30
2015,06,28,07,54,20.30
2015,06,28,07,55,20.40
2015,06,28,07,56,20.50
2015,06,28,07,57,20.50
2015,06,28,07,58,20.70
2015,06,28,07,59,20.80
2015,06,28,08,00,20.90
2015,06,28,08,01,21.00
2015,06,28,08,02,21.20
2015,06,28,08,03,21.40
2015,06,28,08,04,21.60
2015,06,28,08,05,21.70
2015,06,28,08,06,21.90
2015,06,28,08,07,22.10
2015,06,28,08,08,22.30
2015,06,28,08,09,22.60
2015,06,28,08,10,22.80
2015,06,28,08,11,23.10
2015,06,28,08,12,23.40
2015,06,28,08,13,23.60
2015,06,28,08,14,23.80
2015,06,28,08,15,24.00
2015,06,28,08,16,24.10
2015,06,28,08,17,24.30
2015,06,28,08,18,24.40
2015,06,28,08,19,24.50
2015,06,28,08,20,24.60
2015,06,28,08,21,24.70
2015,06,28,08,22,24.80
2015,06,28,08,23,24.90
2015,06,28,08,24,25.10
2015,06,28,08,25,25.20
2015,06,28,08,26,25.40
2015,06,28,08,27,25.50
2015,06,28,08,28,25.60
2015,06,28,08,29,25.70
2015,06,28,08,30,25.90
2015,06,28,08,31,25.90
2015,06,28,08,32,25.90
2015,06,28,08,33,26.00
2015,06,28,08,34,26.10
2015,06,28,08,35,26.20
2015,06,28,08,36,26.30
2015,06,28,08,37,26.30
2015,06,28,08,38,26.40
2015,06,28,08,39,26.40
2015,06,28,08,40,26.50
2015,06,28,08,41,26.50
2015,06,28,08,42,26.60
2015,06,28,08,43,26.70
2015,06,28,08,44,26.70
2015,06,28,08,45,26.80
2015,06,28,08,46,26.90
2015,06,28,08,47,27.00
2015,06,28,08,48,27.10
2015,06,28,08,49,27.20
2015,06,28,08,50,27.30
2015,06,28,08,51,27.30
2015,06,28,08,52,27.40
2015,06,28,08,53,27.50
2015,06,28,08,54,27.60
2015,06,28,08,55,27.60
2015,06,28,08,56,27.70
2015,06,28,08,57,27.80
2015,06,28,08,58,27.80
2015,06,28,08,59,27.80
2015,06,28,09,00,27.90
2015,06,28,09,01,27.90
2015,06,28,09,02,28.00
2015,06,28,09,03,28.00
2015,06,28,09,04,28.00
2015,06,28,09,05,28.00
2015,06,28,09,06,27.90
2015,06,28,09,07,27.90
2015,06,28,09,08,27.80
2015,06,28,09,09,27.80
2015,06,28,09,10,27.70
2015,06,28,09,11,27.70
2015,06,28,09,12,27.60
2015,06,28,09,13,27.60
2015,06,28,09,14,27.70
2015,06,28,09,15,27.70
2015,06,28,09,16,27.70
2015,06,28,09,17,27.80
2015,06,28,09,18,27.80
2015,06,28,09,19,27.80
2015,06,28,09,20,27.70
2015,06,28,09,21,27.70
2015,06,28,09,22,27.60
2015,06,28,09,23,27.60
2015,06,28,09,24,27.50
2015,06,28,09,25,27.50
2015,06,28,09,26,27.40
2015,06,28,09,27,27.40
2015,06,28,09,28,27.40
2015,06,28,09,29,27.40
2015,06,28,09,30,27.40
2015,06,28,09,31,27.40
2015,06,28,09,32,27.40
2015,06,28,09,33,27.40
2015,06,28,09,34,27.40
2015,06,28,09,35,27.40
2015,06,28,09,36,27.40
2015,06,28,09,37,27.40
2015,06,28,09,38,27.40
2015,06,28,09,39,27.40
2015,06,28,09,40,27.40
2015,06,28,09,41,27.40
2015,06,28,09,42,27.40
2015,06,28,09,43,27.40
2015,06,28,09,44,27.40
2015,06,28,09,45,27.40
2015,06,28,09,46,27.40
2015,06,28,09,47,27.40
2015,06,28,09,48,27.40
2015,06,28,09,49,27.30
2015,06,28,09,50,27.30
2015,06,28,09,51,27.30
2015,06,28,09,52,27.30
2015,06,28,09,53,27.30
2015,06,28,09,54,27.30
2015,06,28,09,55,27.30
2015,06,28,09,56,27.30
2015,06,28,09,57,27.30
2015,06,28,09,58,27.30
2015,06,28,09,59,27.30
2015,06,28,10,00,27.30
2015,06,28,10,01,27.30
2015,06,28,10,02,27.30
2015,06,28,10,03,27.30
2015,06,28,10,04,27.30
2015,06,28,10,05,27.40
2015,06,28,10,06,27.40
2015,06,28,10,07,27.40
2015,06,28,10,08,27.50
2015,06,28,10,09,27.60
2015,06,28,10,10,27.60
2015,06,28,10,11,27.70
2015,06,28,10,12,27.80
2015,06,28,10,13,27.90
2015,06,28,10,14,27.90
2015,06,28,10,15,28.00
2015,06,28,10,16,28.10
2015,06,28,10,17,28.10
2015,06,28,10,18,28.20
2015,06,28,10,19,28.30
2015,06,28,10,20,28.40
2015,06,28,10,21,28.40
2015,06,28,10,22,28.50
2015,06,28,10,23,28.60
2015,06,28,10,24,28.70
2015,06,28,10,25,28.70
2015,06,28,10,26,28.80
2015,06,28,10,27,28.90
2015,06,28,10,28,29.00
2015,06,28,10,29,29.00
2015,06,28,10,30,29.00
2015,06,28,10,31,29.00
2015,06,28,10,32,28.90
2015,06,28,10,33,28.80
2015,06,28,10,34,28.80
2015,06,28,10,35,28.90
2015,06,28,10,36,28.90
2015,06,28,10,37,28.90
2015,06,28,10,38,28.90
2015,06,28,10,39,29.00
2015,06,28,10,40,29.00
2015,06,28,10,41,29.00
2015,06,28,10,42,29.00
2015,06,28,10,43,29.00
2015,06,28,10,44,29.00
2015,06,28,10,45,29.00
2015,06,28,10,46,29.10
2015,06,28,10,47,29.10
2015,06,28,10,48,29.20
2015,06,28,10,49,29.30
2015,06,28,10,50,29.30
2015,06,28,10,51,29.40
2015,06,28,10,52,29.40
2015,06,28,10,53,29.40
2015,06,28,10,54,29.40
2015,06,28,10,55,29.40
2015,06,28,10,56,29.50
2015,06,28,10,57,29.50
2015,06,28,10,58,29.60
2015,06,28,10,59,29.60
2015,06,28,11,00,29.70
2015,06,28,11,01,29.70
2015,06,28,11,02,29.70
2015,06,28,11,03,29.70
2015,06,28,11,04,29.60
2015,06,28,11,05,29.50
2015,06,28,11,06,29.50
2015,06,28,11,07,29.50
2015,06,28,11,08,29.50
2015,06,28,11,09,29.50
2015,06,28,11,10,29.50
2015,06,28,11,11,29.50
2015,06,28,11,12,29.40
2015,06,28,11,13,29.20
2015,06,28,11,14,29.10
2015,06,28,11,15,28.90
2015,06,28,11,16,28.80
2015,06,28,11,17,28.70
2015,06,28,11,18,28.60
2015,06,28,11,19,28.50
2015,06,28,11,20,28.40
2015,06,28,11,21,28.30
2015,06,28,11,22,28.30
2015,06,28,11,23,28.20
2015,06,28,11,24,28.10
2015,06,28,11,25,27.90
2015,06,28,11,26,27.70
2015,06,28,11,27,27.50
2015,06,28,11,28,27.30
2015,06,28,11,29,27.10
2015,06,28,11,30,26.90
2015,06,28,11,31,26.80
2015,06,28,11,32,26.70
2015,06,28,11,33,26.60
2015,06,28,11,34,26.50
2015,06,28,11,35,26.40
2015,06,28,11,36,26.30
2015,06,28,11,37,26.40
2015,06,28,11,38,26.30
2015,06,28,11,39,26.30
2015,06,28,11,40,26.30
2015,06,28,11,41,26.20
2015,06,28,11,42,26.20
2015,06,28,11,43,26.20
2015,06,28,11,44,26.20
2015,06,28,11,45,26.10
2015,06,28,11,46,26.10
2015,06,28,11,47,26.00
2015,06,28,11,48,26.00
2015,06,28,11,49,25.90
2015,06,28,11,50,25.90
2015,06,28,11,51,25.90
2015,06,28,11,52,25.80
2015,06,28,11,53,25.70
2015,06,28,11,54,25.70
2015,06,28,11,55,25.70
2015,06,28,11,56,25.70
2015,06,28,11,57,25.70
2015,06,28,11,58,25.70
2015,06,28,11,59,25.70
2015,06,28,12,00,25.70
2015,06,28,12,01,25.70
2015,06,28,12,02,25.80
2015,06,28,12,03,25.80
2015,06,28,12,04,25.80
2015,06,28,12,05,25.80
2015,06,28,12,06,25.80
2015,06,28,12,07,25.80
2015,06,28,12,08,25.80
2015,06,28,12,09,25.80
2015,06,28,12,10,25.80
2015,06,28,12,11,25.70
2015,06,28,12,12,25.60
2015,06,28,12,13,25.60
2015,06,28,12,14,25.60
2015,06,28,12,15,25.60
2015,06,28,12,16,25.60
2015,06,28,12,17,25.60
2015,06,28,12,18,25.60
2015,06,28,12,19,25.50
2015,06,28,12,20,25.60
2015,06,28,12,21,25.60
2015,06,28,12,22,25.60
2015,06,28,12,23,25.60
2015,06,28,12,24,25.60
2015,06,28,12,25,25.50
2015,06,28,12,26,25.40
2015,06,28,12,27,25.40
2015,06,28,12,28,25.30
2015,06,28,12,29,25.30
2015,06,28,12,30,25.30
2015,06,28,12,31,25.30
2015,06,28,12,32,25.30
2015,06,28,12,33,25.30
2015,06,28,12,34,25.40
2015,06,28,12,35,25.40
2015,06,28,12,36,25.40
2015,06,28,12,37,25.40
2015,06,28,12,38,25.50
2015,06,28,12,39,25.50
2015,06,28,12,40,25.50
2015,06,28,12,41,25.50
2015,06,28,12,42,25.50
2015,06,28,12,43,25.50
2015,06,28,12,44,25.60
2015,06,28,12,45,25.60
2015,06,28,12,46,25.60
2015,06,28,12,47,25.60
2015,06,28,12,48,25.70
2015,06,28,12,49,25.70
2015,06,28,12,50,25.70
2015,06,28,12,51,25.70
2015,06,28,12,52,25.70
2015,06,28,12,53,25.70
2015,06,28,12,54,25.70
2015,06,28,12,55,25.70
2015,06,28,12,56,25.70
2015,06,28,12,57,25.80
2015,06,28,12,58,25.80
2015,06,28,12,59,25.80
2015,06,28,13,00,25.80
2015,06,28,13,01,25.80
2015,06,28,13,02,25.80
2015,06,28,13,03,25.80
2015,06,28,13,04,25.80
2015,06,28,13,05,25.80
2015,06,28,13,06,25.80
2015,06,28,13,07,25.80
2015,06,28,13,08,25.80
2015,06,28,13,09,25.80
2015,06,28,13,10,25.80
2015,06,28,13,11,25.80
2015,06,28,13,12,25.80
2015,06,28,13,13,25.80
2015,06,28,13,14,25.90
2015,06,28,13,15,25.90
2015,06,28,13,16,25.80
2015,06,28,13,17,25.80
2015,06,28,13,18,25.80
2015,06,28,13,19,25.80
2015,06,28,13,20,25.80
2015,06,28,13,21,25.80
2015,06,28,13,22,25.80
2015,06,28,13,23,25.80
2015,06,28,13,24,25.80
2015,06,28,13,25,25.90
2015,06,28,13,26,25.90
2015,06,28,13,27,25.90
2015,06,28,13,28,25.80
2015,06,28,13,29,25.80
2015,06,28,13,30,25.70
2015,06,28,13,31,25.70
2015,06,28,13,32,25.70
2015,06,28,13,33,25.70
2015,06,28,13,34,25.60
2015,06,28,13,35,25.70
2015,06,28,13,36,25.70
2015,06,28,13,37,25.70
2015,06,28,13,38,25.70
2015,06,28,13,39,25.70
2015,06,28,13,40,25.70
2015,06,28,13,41,25.70
2015,06,28,13,42,25.70
2015,06,28,13,43,25.70
2015,06,28,13,44,25.70
2015,06,28,13,45,25.70
2015,06,28,13,46,25.70
2015,06,28,13,47,25.70
2015,06,28,13,48,25.70
2015,06,28,13,49,25.70
2015,06,28,13,50,25.70
2015,06,28,13,51,25.70
2015,06,28,13,52,25.70
2015,06,28,13,53,25.80
2015,06,28,13,54,25.80
2015,06,28,13,55,25.80
2015,06,28,13,56,25.80
2015,06,28,13,57,25.80
2015,06,28,13,58,25.80
2015,06,28,13,59,25.80
2015,06,28,14,00,25.80
2015,06,28,14,01,25.80
2015,06,28,14,02,25.80
2015,06,28,14,03,25.80
2015,06,28,14,04,25.80
2015,06,28,14,05,25.80
2015,06,28,14,06,25.80
2015,06,28,14,07,25.80
2015,06,28,14,08,25.80
2015,06,28,14,09,25.70
2015,06,28,14,10,25.70
2015,06,28,14,11,25.70
2015,06,28,14,12,25.60
2015,06,28,14,13,25.60
2015,06,28,14,14,25.60
2015,06,28,14,15,25.60
2015,06,28,14,16,25.60
2015,06,28,14,17,25.70
2015,06,28,14,18,25.70
2015,06,28,14,19,25.70
2015,06,28,14,20,25.80
2015,06,28,14,21,25.80
2015,06,28,14,22,25.90
2015,06,28,14,23,25.90
2015,06,28,14,24,25.90
2015,06,28,14,25,25.90
2015,06,28,14,26,25.90
2015,06,28,14,27,26.00
2015,06,28,14,28,26.00
2015,06,28,14,29,26.10
2015,06,28,14,30,26.10
2015,06,28,14,31,26.10
2015,06,28,14,32,26.10
2015,06,28,14,33,26.10
2015,06,28,14,34,26.10
2015,06,28,14,35,26.20
2015,06,28,14,36,26.20
2015,06,28,14,37,26.20
2015,06,28,14,38,26.20
2015,06,28,14,39,26.20
2015,06,28,14,40,26.20
2015,06,28,14,41,26.20
2015,06,28,14,42,26.10
2015,06,28,14,43,26.10
2015,06,28,14,44,26.10
2015,06,28,14,45,26.10
2015,06,28,14,46,26.00
2015,06,28,14,47,26.00
2015,06,28,14,48,25.90
2015,06,28,14,49,25.90
2015,06,28,14,50,25.90
2015,06,28,14,51,25.90
2015,06,28,14,52,25.90
2015,06,28,14,53,25.90
2015,06,28,14,54,25.90
2015,06,28,14,55,25.90
2015,06,28,14,56,25.90
2015,06,28,14,57,25.80
2015,06,28,14,58,25.80
2015,06,28,14,59,25.80
2015,06,28,15,00,25.80
2015,06,28,15,01,25.70
2015,06,28,15,02,25.70
2015,06,28,15,03,25.70
2015,06,28,15,04,25.60
2015,06,28,15,05,25.60
2015,06,28,15,06,25.50
2015,06,28,15,07,25.40
2015,06,28,15,08,25.30
2015,06,28,15,09,25.20
2015,06,28,15,10,25.20
2015,06,28,15,11,25.10
2015,06,28,15,12,25.10
2015,06,28,15,13,25.20
2015,06,28,15,14,25.20
2015,06,28,15,15,25.20
2015,06,28,15,16,25.20
2015,06,28,15,17,25.20
2015,06,28,15,18,25.10
2015,06,28,15,19,25.10
2015,06,28,15,20,25.00
2015,06,28,15,21,24.90
2015,06,28,15,22,24.90
2015,06,28,15,23,24.90
2015,06,28,15,24,24.90
2015,06,28,15,25,24.90
2015,06,28,15,26,24.90
2015,06,28,15,27,24.90
2015,06,28,15,28,24.90
2015,06,28,15,29,24.90
2015,06,28,15,30,24.90
2015,06,28,15,31,24.90
2015,06,28,15,32,24.90
2015,06,28,15,33,24.90
2015,06,28,15,34,24.80
2015,06,28,15,35,24.80
2015,06,28,15,36,24.80
2015,06,28,15,37,24.80
2015,06,28,15,38,24.80
2015,06,28,15,39,24.80
2015,06,28,15,40,24.70
2015,06,28,15,41,24.70
2015,06,28,15,42,24.70
2015,06,28,15,43,24.60
2015,06,28,15,44,24.60
2015,06,28,15,45,24.50
2015,06,28,15,46,24.50
2015,06,28,15,47,24.50
2015,06,28,15,48,24.50
2015,06,28,15,49,24.40
2015,06,28,15,50,24.40
2015,06,28,15,51,24.40
2015,06,28,15,52,24.40
2015,06,28,15,53,24.30
2015,06,28,15,54,24.30
2015,06,28,15,55,24.30
2015,06,28,15,56,24.30
2015,06,28,15,57,24.30
2015,06,28,15,58,24.30
2015,06,28,15,59,24.30
2015,06,28,16,00,24.20
2015,06,28,16,01,24.20
2015,06,28,16,02,24.20
2015,06,28,16,03,24.20
2015,06,28,16,04,24.20
2015,06,28,16,05,24.20
2015,06,28,16,06,24.20
2015,06,28,16,07,24.20
2015,06,28,16,08,24.30
2015,06,28,16,09,24.30
2015,06,28,16,10,24.30
2015,06,28,16,11,24.30
2015,06,28,16,12,24.30
2015,06,28,16,13,24.30
2015,06,28,16,14,24.30
2015,06,28,16,15,24.20
2015,06,28,16,16,24.20
2015,06,28,16,17,24.20
2015,06,28,16,18,24.20
2015,06,28,16,19,24.10
2015,06,28,16,20,24.10
2015,06,28,16,21,24.10
2015,06,28,16,22,24.10
2015,06,28,16,23,24.00
2015,06,28,16,24,24.00
2015,06,28,16,25,23.90
2015,06,28,16,26,23.90
2015,06,28,16,27,23.90
2015,06,28,16,28,23.80
2015,06,28,16,29,23.70
2015,06,28,16,30,23.70
2015,06,28,16,31,23.60
2015,06,28,16,32,23.50
2015,06,28,16,33,23.40
2015,06,28,16,34,23.40
2015,06,28,16,35,23.40
2015,06,28,16,36,23.30
2015,06,28,16,37,23.30
2015,06,28,16,38,23.40
2015,06,28,16,39,23.40
2015,06,28,16,40,23.40
2015,06,28,16,41,23.40
2015,06,28,16,42,23.40
2015,06,28,16,43,23.50
2015,06,28,16,44,23.50
2015,06,28,16,45,23.50
2015,06,28,16,46,23.60
2015,06,28,16,47,23.60
2015,06,28,16,48,23.60
2015,06,28,16,49,23.60
2015,06,28,16,50,23.60
2015,06,28,16,51,23.70
2015,06,28,16,52,23.70
2015,06,28,16,53,23.70
2015,06,28,16,54,23.70
2015,06,28,16,55,23.70
2015,06,28,16,56,23.70
2015,06,28,16,57,23.70
2015,06,28,16,58,23.70
2015,06,28,16,59,23.60
2015,06,28,17,00,23.60
2015,06,28,17,01,23.50
2015,06,28,17,02,23.50
2015,06,28,17,03,23.40
2015,06,28,17,04,23.40
2015,06,28,17,05,23.40
2015,06,28,17,06,23.40
2015,06,28,17,07,23.40
2015,06,28,17,08,23.40
2015,06,28,17,09,23.40
2015,06,28,17,10,23.40
2015,06,28,17,11,23.40
2015,06,28,17,12,23.40
2015,06,28,17,13,23.40
2015,06,28,17,14,23.40
2015,06,28,17,15,23.40
2015,06,28,17,16,23.40
2015,06,28,17,17,23.40
2015,06,28,17,18,23.40
2015,06,28,17,19,23.40